Weather History for Nuiqsut, AK

Change the Weather History Date:

Monday, June 17, 2013

  Actual Average (PAKU) Record (PAKU)
Temperature  
Mean Temperature 45 °F -  
Max Temperature 59 °F 45 °F 69 °F (2004)
Min Temperature 33 °F 33 °F 26 °F (1985)
Degree Days  
Heating Degree Days 20    
Moisture  
Dew Point 39 °F    
Average Humidity 83    
Maximum Humidity 100    
Minimum Humidity 53    
Precipitation  
Precipitation 0.00 in - - ()
Sea Level Pressure  
Sea Level Pressure 30.44 in    
Wind  
Wind Speed 7 mph (NE)    
Max Wind Speed 12 mph    
Max Gust Speed -    
Visibility 7 miles    
Events Fog    
Averages and records for this station are not official NWS values.
T = Trace of Precipitation, MM = Missing Value Source: NWS Daily Summary

Daily Weather History Graph

Daily Weather History Graph

Search for Another Location

Airport:

Trip Planner

Search our weather history database for the weather conditions in past years. The results will help you decide how hot, cold, wet, or windy it might be!

Date:

Astronomy

Dec. 31, 1969 Rise Set
Actual Time Sun does not rise Sun does not rise
Civil Twilight Sun does not rise Sun does not rise
Nautical Twilight Sun does not rise Sun does not rise
Astronomical Twilight Sun does not rise Sun does not rise
Moon 4:31 PM AKDT (6/17) 1:34 AM AKDT (6/17)
Length of Visible Light 24h 00m
Length of Day
24h 00m
First Quarter, 62% of the Moon is Illuminated
Jun 17
First Quarter
Jun 23
Full
Jun 29
Last Quarter
Jul 7
New
Jul 15
First Quarter

Hourly Weather History & Observations

Time (AKDT) Temp. Windchill Dew Point Humidity Pressure Visibility Wind Dir Wind Speed Gust Speed Precip Events Conditions
12:53 AM 37.0 °F 32.4 °F 35.1 °F 93% 30.48 in 10.0 mi ENE 5.8 mph - N/A   Clear
1:34 AM 35.6 °F 29.2 °F 33.8 °F 93% 30.48 in 10.0 mi ENE 8.1 mph - N/A   Partly Cloudy
1:48 AM 35.6 °F 29.9 °F 33.8 °F 93% 30.49 in 10.0 mi ENE 6.9 mph - N/A   Mostly Cloudy
1:53 AM 35.1 °F 29.3 °F 34.0 °F 96% 30.49 in 10.0 mi ENE 6.9 mph - N/A   Mostly Cloudy
2:01 AM 33.8 °F 28.6 °F 33.8 °F 100% 30.49 in 7.0 mi ENE 5.8 mph - N/A   Overcast
2:07 AM 33.8 °F 27.7 °F 33.8 °F 100% 30.49 in 0.8 mi ENE 6.9 mph - N/A   Overcast
2:31 AM 33.8 °F 27.7 °F 33.8 °F 100% 30.49 in 0.2 mi ENE 6.9 mph - N/A Fog Fog
2:53 AM 33.1 °F 26.9 °F 33.1 °F 100% 30.50 in 0.2 mi ENE 6.9 mph - N/A Fog Fog
3:53 AM 33.1 °F 26.1 °F 33.1 °F 100% 30.49 in 0.2 mi East 8.1 mph - N/A Fog Fog
4:53 AM 33.1 °F 27.7 °F 33.1 °F 100% 30.48 in 0.2 mi East 5.8 mph - N/A Fog Fog
5:53 AM 34.0 °F 29.8 °F 34.0 °F 100% 30.47 in 0.2 mi East 4.6 mph - N/A Fog Fog
6:53 AM 35.1 °F 31.0 °F 35.1 °F 100% 30.46 in 0.2 mi East 4.6 mph - N/A Fog Fog
7:30 AM 37.4 °F - 37.4 °F 100% 30.45 in 1.8 mi Calm Calm - N/A   Mostly Cloudy
7:32 AM 37.4 °F - 37.4 °F 100% 30.45 in 3.0 mi Calm Calm - N/A   Mostly Cloudy
7:46 AM 39.2 °F 37.0 °F 37.4 °F 93% 30.45 in 10.0 mi NNE 3.5 mph - N/A   Scattered Clouds
7:53 AM 39.0 °F 36.8 °F 39.0 °F 100% 30.46 in 10.0 mi NE 3.5 mph - N/A   Partly Cloudy
8:53 AM 42.1 °F 38.4 °F 39.0 °F 89% 30.45 in 10.0 mi NE 5.8 mph - N/A   Clear
9:53 AM 45.0 °F 41.8 °F 39.0 °F 80% 30.45 in 10.0 mi NNE 5.8 mph - N/A   Clear
10:53 AM 48.0 °F - 39.9 °F 74% 30.44 in 10.0 mi NNE 5.8 mph - N/A   Clear
11:53 AM 52.0 °F - 41.0 °F 66% 30.44 in 10.0 mi NNE 5.8 mph - N/A   Clear
12:53 PM 53.1 °F - 42.1 °F 66% 30.44 in 10.0 mi NNE 8.1 mph - N/A   Clear
1:53 PM 54.0 °F - 43.0 °F 66% 30.43 in 10.0 mi NNE 8.1 mph - N/A   Clear
2:53 PM 54.0 °F - 45.0 °F 72% 30.43 in 10.0 mi NNE 9.2 mph - N/A   Clear
3:53 PM 57.0 °F - 44.1 °F 62% 30.42 in 10.0 mi NNE 9.2 mph - N/A   Clear
4:53 PM 57.0 °F - 46.0 °F 67% 30.40 in 10.0 mi NNE 10.4 mph - N/A   Clear
5:53 PM 57.9 °F - 42.1 °F 56% 30.40 in 10.0 mi NE 9.2 mph - N/A   Clear
6:53 PM 57.9 °F - 41.0 °F 53% 30.38 in 10.0 mi ENE 9.2 mph - N/A   Clear
7:53 PM 57.9 °F - 41.0 °F 53% 30.38 in 10.0 mi NE 11.5 mph - N/A   Clear
8:53 PM 57.0 °F - 44.1 °F 62% 30.37 in 10.0 mi NE 11.5 mph - N/A   Clear
9:53 PM 54.0 °F - 43.0 °F 66% 30.37 in 10.0 mi ENE 10.4 mph - N/A   Clear
10:53 PM 52.0 °F - 43.0 °F 71% 30.36 in 10.0 mi ENE 10.4 mph - N/A   Clear
11:53 PM 48.0 °F - 42.1 °F 80% 30.36 in 10.0 mi ENE 6.9 mph - N/A   Clear